Location: Chervonnoye
(48.6000°N, 34.4000°E)
Time: 11:52:01
(UTC+00:00)

deb Kosmos-2237 - Pass Details

Date: 17 June 2021
Orbit: 850 x 1045 km, 71.0° (Epoch: 25 July)

Event Time Altitude Azimuth Distance (km) Brightness Sun altitude
Rises 21:36:36 0° 266° (W) 3,610 ? -18.0°
Reaches altitude 10° 21:39:58 10° 285° (WNW) 2,706 ? -18.0°
Maximum altitude 21:44:13 18° 327° (NNW) 2,203 ? -18.0°
Drops below altitude 10° 21:48:36 10° 10° (N) 2,800 ? -18.0°
Sets 21:52:12 0° 28° (NNE) 3,782 ? -18.0°
